Regional Weather Roundup
Issued by NWS

Home | Current Version | Previous Version | Text Only | Print | Product List | Glossary Off
Versions: 1 2 3 4 5 6 7 8 9 10 11 12 13 14 15 16 17 18 19 20 21 22 23 24 25 26 27 28 29 30 31 32 33 34 35 36 37 38 39 40 41 42 43 44 45 46 47 48 49 50

907
ASUS43 KMKX 230521
RWRWI

WISCONSIN REGIONAL WEATHER ROUNDUP
NATIONAL WEATHER SERVICE MILWAUKEE/SULLIVAN WI
1200 AM CDT SUN APR 23 2017

NOTE: "FAIR" INDICATES FEW OR NO CLOUDS BELOW 12,000 FEET WITH NO
SIGNIFICANT WEATHER AND/OR OBSTRUCTIONS TO VISIBILITY.

WIZ001-002-006>008-014>016-023>028-230600-
NORTHWEST WISCONSIN

CITY           SKY/WX    TMP DP  RH WIND       PRES   REMARKS
SUPERIOR ARPT  MOCLDY    48  38  70 NE8       30.07F
ASHLAND        MOCLDY    46  38  73 NE3       30.07S
HAYWARD        CLEAR     45  37  73 CALM      30.05F
SIREN          CLEAR     54  33  44 SW7       30.05F
CUMBERLAND     CLEAR     45  34  65 SW5       30.08F
RICE LAKE      CLEAR     46  36  69 S3        30.09S
CHETEK         CLEAR     49  35  58 SW5       30.08F
LADYSMITH      CLEAR     51  33  50 CALM      30.08F
EAU CLAIRE     CLEAR     49  35  58 S5        30.09S
MENOMONIE      CLEAR     51  38  61 NW5       30.10S
NEW RICHMOND   CLEAR     47  35  64 S5        30.09F
OSCEOLA        CLEAR     48  36  63 SW7       30.11S
$$

WIZ003>005-009-010-017-018-230600-
NORTH CENTRAL WISCONSIN

CITY           SKY/WX    TMP DP  RH WIND       PRES   REMARKS
MANITOWISH WTR PTCLDY    51  32  48 N3        30.04F
ARBOR VITAE    CLEAR     47  33  59 SW3       30.03F
WOODRUFF       CLEAR     47  33  59 SW3       30.03F
RHINELANDER    CLEAR     51  33  50 SW8       30.06F
EAGLE RIVER    PTCLDY    46  30  54 SW6       30.03F
LAND O LAKES   PTCLDY    47  35  62 NW3       30.06F
PHILLIPS       CLEAR     51  33  52 SW5       30.05F
TOMAHAWK       CLEAR     50  32  50 CALM      30.08S
MEDFORD        CLEAR     48  33  56 SW6       30.09S
MERRILL        CLEAR     49  33  54 CALM      30.09S
$$

WIZ029-030-035-036-043>047-230600-
CENTRAL WISCONSIN

CITY           SKY/WX    TMP DP  RH WIND       PRES   REMARKS
WAUSAU         CLEAR     48  32  53 CALM      30.08S
MOSINEE        CLEAR     45  34  65 SW6       30.11S
MARSHFIELD     CLEAR     49  31  49 W3        30.10S
STEVENS POINT  CLEAR     38  31  75 CALM      30.12R
WAUPACA        CLEAR     45  34  66 CALM      30.11S
WAUTOMA        CLEAR     38  32  79 CALM      30.12S
WISC RAPIDS    CLEAR     43  33  68 CALM      30.12S
CAMP DOUGLAS   CLEAR     37  33  84 CALM      30.12S
$$

WIZ011>013-019>022-031-037>040-048>050-230600-
NORTHEAST WISCONSIN

CITY           SKY/WX    TMP DP  RH WIND       PRES   REMARKS
ANTIGO         CLEAR     44  32  62 SW7       30.09S
SHAWANO        CLEAR     51  32  48 CALM      30.10R
OCONTO         CLEAR     49  32  51 SW5       30.08R
STURGEON BAY   CLEAR     53  31  42 SW12      30.08S
GREEN BAY      CLEAR     50  36  58 SW3       30.10S
MANITOWOC      CLEAR     48  30  49 SW7       30.11F
APPLETON       CLEAR     46  32  57 SW8       30.10R
CLINTONVILLE   CLEAR     46  32  57 SW6       30.10R
OSHKOSH        CLEAR     48  33  56 S8        30.11S
$$

WIZ032>034-041-042-053>061-230600-
SOUTHWEST WISCONSIN

CITY           SKY/WX    TMP DP  RH WIND       PRES   REMARKS
LA CROSSE      CLEAR     51  41  68 S5        30.12S
SPARTA         CLEAR     36  31  83 CALM      30.14R
VIROQUA        CLEAR     50  28  42 S6        30.13F
BOSCOBEL       CLEAR     41  35  79 CALM      30.15S
PRAIRIE DU CHI CLEAR     43  33  68 CALM      30.14F
PLATTEVILLE    CLEAR     50  30  45 S3        30.15F
$$

WIZ056-057-062-063-064-067-068-230600-
SOUTH CENTRAL WISCONSIN

CITY           SKY/WX    TMP DP  RH WIND       PRES   REMARKS
REEDSBURG      CLEAR     44  35  72 CALM      30.13S
BARABOO/DELLS  CLEAR     42  32  66 S5        30.12F
LONE ROCK      CLEAR     42  36  79 CALM      30.14F
MINERAL POINT  CLEAR     54  21  28 SW3       30.14F
MADISON        CLEAR     44  34  67 CALM      30.14S
MIDDLETON      CLEAR     42  40  91 CALM      30.14S
WATERTOWN      CLEAR     43  32  64 S3        30.14S
MONROE         CLEAR     52  27  37 S5        30.14F
JANESVILLE     CLEAR     43  32  65 CALM      30.14F
$$

WIZ051-052-058>065-066-070>072-230600-
SOUTHEAST WISCONSIN

CITY           SKY/WX    TMP DP  RH WIND       PRES   REMARKS
MILWAUKEE      CLEAR     44  28  53 CALM      30.14F
WAUKESHA       CLEAR     45  23  42 SW6       30.15F
MILWAUKEE/TIMM CLEAR     41  25  52 CALM      30.15F
RACINE         CLEAR     40  30  67 W3        30.16F
KENOSHA        CLEAR     40  28  62 W3        30.15F
FOND DU LAC    CLEAR     45  35  68 S5        30.12S
SHEBOYGAN      CLEAR     42  31  64 SW5       30.12F
WEST BEND      CLEAR     43  27  52 CALM      30.14S
JUNEAU         CLEAR     47  34  60 CALM      30.14S
$$

LSZ147-162-230600-
LAKE SUPERIOR

STATION/POSITION TIME  TEMP    WIND        PRES    WAVE
                       AIR SEA DIR/SP/G            HT/PER
                 (UTC) (F)     (DEG/KT/KT) (MB)    (FT/S)
DEVILS ISLAND    0500   45      50/  7/  8 1018.8R
PORT WING        0240   47      60/  5/  9 1017.6
SAXON HARBOR     0440   43        CALM     1017.9R
$$

LMZ867-665-643>646-230600-
LAKE MICHIGAN

STATION/POSITION TIME  TEMP    WIND        PRES    WAVE
                       AIR SEA DIR/SP/G            HT/PER
                 (UTC) (F)     (DEG/KT/KT) (MB)    (FT/S)
CHAMBERS ISLAND  0440   50     190/  6/ 15 1017.6R
N MID LAKE BUOY  0450   42 37  200/ 16/ 17 1018.4F   2/ 3
NORTHPORT PIER   0440   54     220/  6/ 11 1017.3S
KEWAUNEE LAKESHO 0454   51     240/  7/ 11 1018.5F
SHEBOYGAN LAKESH 0500   51     230/  9/ 11 1020.0F
PORT WASHINGTON  0440   46     240/  3/  4 1021.3F
MILWAUKEE LAKESH 0430   53     220/  5/  5   N/A
KENOSHA   LAKESH 0500   48      CALM  /  3 1021.0
$$

TC  - TEMPERATURE IN CELSIUS
VSB - VISIBILITY IN STATUTE MILES
WCI - WIND CHILL INDEX
HX  - HEAT INDEX





USA.gov is the U.S. government's official web portal to all federal, state and local government web resources and services.